7 * 24
多渠道服务支持
IRNSS 1B是印度区域导航卫星系统(IRNSS)的第二颗卫星,于2014年4月4日由印度空间研究组织(ISRO)使用极轨卫星运载火箭发射升空。卫星重约1432千克,设计使用寿命10年,属于印度自主建设的区域导航星座组成部分。该系统可为印度本土及周边1500千米范围内提供定位服务,应用覆盖陆海空导航、灾难管理、测绘授时等领域,兼具民用与战略价值。
印度
(IN)
| 数据来源 | 国际轨道数据 |
| 星历时间: | 2026-03-09T09:32:22+0800 5天前 查看轨道信息 |
| 半长轴: | 42164.504km |
| 偏心率: | 0.0021375 |
| 轨道倾角: | 29.102° |
| 近地点辐角 | 179.464° |
| 升交点赤经 | 242.111° |
| 平近点角 | 183.193° |
| 近地点: | 35696.24km |
| 远地点: | 35876.494km |
| 周期: | 1436.085分钟 |
| 每日圈数: | 1.002726 |